User: anonymous   Login
Location: Unspecified
(0.0000°N, 0.0000°E)
Time: 20:25:33
(UTC+00:00)
Language:

STARLINK-3938 - Orbit

View from above orbital plane
View from above orbital plane
View from above satellite
View from above satellite

Ground track
Ground track

The orbit is defined by the following mean orbital elements,

1 52566U          26145.31075250 +.00000000 +00000-0 +33758-3 0 00007
2 52566  53.2115 150.1549 0001089  81.1635 278.9480 15.08807790    03
Epoch (UTC): 25 May 2026 07:27:29
Eccentricity: 0.0001089
inclination: 53.2115°
perigee height: 539 km
apogee height: 541 km
right ascension of ascending node: 150.1549°
argument of perigee: 81.1635°
revolutions per day: 15.08807790
mean anomaly at epoch: 278.9480°

The dashed part of the orbit path shows where the satellite is in the earth's shadow,  

DLR